Regional Weather Roundup
Issued by NWS

Home | Current Version | Previous Version | Text Only | Print | Product List | Glossary Off
Versions: 1 2 3 4 5 6 7 8 9 10 11 12 13 14 15 16 17 18 19 20 21 22 23 24 25 26 27 28 29 30 31 32 33 34 35 36 37 38 39 40 41 42 43 44 45 46 47 48 49 50

000
ASUS43 KDTX 240110
RWRMI
MICHIGAN HOURLY REGIONAL WEATHER ROUNDUP
NATIONAL WEATHER SERVICE DETROIT/PONTIAC MI
900 PM EDT TUE AUG 23 2016

NOTE: "FAIR" INDICATES FEW OR NO CLOUDS BELOW 12,000 FEET WITH NO
SIGNIFICANT WEATHER AND/OR OBSTRUCTION TO VISIBILITY.

MIZ047>049-052>055-059>063-066>070-074>076-081>083-240200-
SOUTHEAST LOWER MICHIGAN

CITY           SKY/WX    TMP DP  RH WIND       PRES   REMARKS
ADRIAN         CLEAR     70  63  78 S3        30.22S
ALMA           CLEAR     68  65  92 W6        30.18S
ANN ARBOR      CLEAR     71  60  68 SE3       30.21S
BAD AXE        CLEAR     67  61  79 CALM      30.20S
CARO           PTCLDY    66  64  93 CALM      30.19S
DETROIT CITY   CLEAR     74  61  63 S8        30.21R
DETROIT        PTCLDY    75  61  61 S7        30.22R
FLINT          CLEAR     74  60  61 S6        30.20R
GROSSE ILE     CLEAR     74  61  63 SW7       30.21R
HILLSDALE      CLEAR     65  60  84 CALM      30.21F
HOWELL         CLEAR     72  60  67 CALM      30.21R

CITY           SKY/WX    TMP DP  RH WIND       PRES   REMARKS
JACKSON        CLEAR     72  59  63 S3        30.21S
LAMBERTVILLE   CLEAR     68  61  79 CALM      30.22F
LANSING        CLEAR     71  58  63 S6        30.19F
LAPEER         FAIR      64  61  88 CALM      30.21R
MASON          CLEAR     70  60  72 SE3       30.21S
MONROE         CLEAR     70  61  73 SW7       30.21S
MT. CLEMENS    PTCLDY    69  61  76 S8        30.18S
PONTIAC        PTCLDY    73  59  61 S5        30.21R
PORT HOPE        N/A     70  62  76 CALM      30.18R
PORT HURON     CLEAR     64  61  88 CALM      30.22R
TRI CITIES     CLEAR     71  62  73 S5        30.19R
MIDLAND        FAIR      68  62  80 CALM      30.17S
TROY           CLEAR     77  55  47 SW3       30.23R
SAGINAW HB     CLEAR     68  61  77 S5        30.18R
$$
MIZ043>046-050>051-056>058-064>065-071>073-077>080-240200-
SOUTHWEST LOWER MICHIGAN

CITY           SKY/WX    TMP DP  RH WIND       PRES   REMARKS
BATTLE CREEK   CLEAR     69  61  75 S6        30.20S
BENTON HARBOR  PTCLDY    73  60  63 SE5       30.15F
BIG RAPIDS     CLEAR     68  64  84 CALM      30.16S
COLDWATER      CLEAR     68  61  78 CALM      30.20F
FREMONT        FAIR      70  58  66 S3        30.15S
HOLLAND        CLEAR     70  63  78 SE3       30.16F
GRAND RAPIDS   PTCLDY    72  59  63 S6        30.18S
IONIA          FAIR      70  59  68 S6        30.17S
KALAMAZOO      CLEAR     73  58  59 S6        30.18F
LUDINGTON      CLEAR     71  60  67 S9        30.12S
MARSHALL       CLEAR     68  63  83 CALM      30.20S
MOUNT PLEASANT CLEAR     74  60  62 CALM      30.17S
MUSKEGON       PTCLDY    72  63  73 S6        30.15S
SOUTH HAVEN    CLEAR     70  63  78 CALM      30.16S
$$
MIZ016>042-240200-
NORTHERN LOWER MICHIGAN

CITY           SKY/WX    TMP DP  RH WIND       PRES   REMARKS
ALPENA         CLEAR     76  60  57 S10       30.13S
BEAVER ISLAND  CLEAR     72  61  68 S10G18    30.09F
BELLAIRE       PTCLDY    74  60  60 S3        30.13R
CADILLAC       CLEAR     67  58  71 S6        30.17S
CHARLEVOIX     PTCLDY    73  59  61 S5        30.14S
FRANKFORT      CLEAR     72  59  63 S5        30.11F
GAYLORD        CLEAR     72  58  61 SW7       30.15S
GRAYLING       CLEAR     71  58  62 SW3       30.17S
HARBOR SPRINGS PTCLDY    73  63  69 SW7       30.11S
HOUGHTON LAKE  CLEAR     70  59  68 S6        30.18S
MANISTEE       CLEAR     71  59  65 VRB3      30.12S
OSCODA         CLEAR     72  61  68 S7        30.16R
PELLSTON       CLEAR     70  61  73 CALM      30.11S
ROGERS CITY    CLEAR     70  66  86 CALM      30.13S FOG
TRAVERSE CITY  MOCLDY    74  58  57 CALM      30.12R
$$
MIZ007>008-015-240200-
EASTERN UPPER MICHIGAN

CITY           SKY/WX    TMP DP  RH WIND       PRES   REMARKS
KINROSS        CLEAR     71  58  63 VRB6      30.09F
MACKINAC ISLAN CLEAR     71  62  73 SW9       30.10S
NEWBERRY       CLEAR     69  64  84 S14G23    30.07S
S. S. MARIE    CLEAR     71  58  63 S5        30.08F
MUNISING         N/A     72  64  76 S10G21    30.01R
$$
MIZ004>006-011>014-085-240200-
CENTRAL UPPER MICHIGAN

CITY           SKY/WX    TMP DP  RH WIND       PRES   REMARKS
MANISTIQUE     CLEAR     66  64  92 S5        30.07S
ESCANABA       PTCLDY    71  66  84 S9        30.05S
MENOMINEE        N/A    N/A N/A N/A MISG        N/A
SAWYER-GWINN   CLEAR     72  61  68 SW14      30.04R
$$
MIZ001>003-009>011-084-240200-
WESTERN UPPER MICHIGAN

CITY           SKY/WX    TMP DP  RH WIND       PRES   REMARKS
IRON MOUNTAIN  PTCLDY    71  62  73 SE6       30.03S
HOUGHTON       CLEAR     76  61  59 SW7       29.95S
COPPER HARBOR    N/A     77  63  61 W7        29.92S
IRONWOOD       CLOUDY    75  63  66 S8        29.96S
$$

ABBREVIATIONS USED IN REMARKS
   TC - TEMPERATURE IN CELSIUS
  WCI - WIND CHILL INDEX
   HX - HEAT INDEX
  VSB - VISIBILITY





USA.gov is the U.S. government's official web portal to all federal, state and local government web resources and services.